Weather History for KSLC - February, 2013

Change the Weather History Date:

Thursday, February 14, 2013

  Actual Average Record
Temperature  
Mean Temperature 33 °F 34 °F  
Max Temperature 40 °F 43 °F 63 °F (1921)
Min Temperature 26 °F 25 °F -13 °F (1933)
Degree Days  
Heating Degree Days 32 31  
Month to date heating degree days 526 461  
Since 1 July heating degree days 3746 3855  
Cooling Degree Days 0 0  
Month to date cooling degree days 0 0  
Year to date cooling degree days 0 0  
Moisture  
Dew Point 25 °F    
Average Humidity 72    
Maximum Humidity 85    
Minimum Humidity 59    
Precipitation  
Precipitation T in 0.05 in 0.54 in (1987)
Month to date precipitation 0.22 0.59  
Year to date precipitation 1.74 1.84  
Snow  
Snow T in 0.40 in 7.20 in (1944)
Month to date snowfall 4.3 5.6  
Since 1 July snowfall 56.7 40.3  
Snow Depth 6.00 in    
Sea Level Pressure  
Sea Level Pressure 30.38 in    
Wind  
Wind Speed 5 mph (NW)    
Max Wind Speed 9 mph    
Max Gust Speed 11 mph    
Visibility 9 miles    
Events Snow    
T = Trace of Precipitation, MM = Missing Value Source: NWS Daily Summary

Daily Weather History Graph

Daily Weather History Graph

Search for Another Location

Airport or City:

Trip Planner

Search our weather history database for the weather conditions in past years. The results will help you decide how hot, cold, wet, or windy it might be!

Date:

Astronomy

Feb. 14, 2013 Rise Set
Actual Time 7:22 AM MST 6:01 PM MST
Civil Twilight 6:54 AM MST 6:30 PM MST
Nautical Twilight 6:22 AM MST 7:02 PM MST
Astronomical Twilight 5:50 AM MST 7:33 PM MST
Moon 9:24 AM MST (2/14) 11:10 PM MST (2/14)
Length of Visible Light 11h 35m
Length of Day
10h 39m
Waxing Crescent, 22% of the Moon is Illuminated
Feb 14
Waxing Crescent
Feb 17
First Quarter
Feb 25
Full
Mar 4
Last Quarter
Mar 11
New

Hourly Weather History & Observations

Time (MST) Temp. Windchill Dew Point Humidity Pressure Visibility Wind Dir Wind Speed Gust Speed Precip Events Conditions
12:53 AM 32.0 °F 24.8 °F 27.0 °F 82% 30.27 in 9.0 mi SE 8.1 mph - N/A   Overcast
1:53 AM 32.0 °F 28.7 °F 27.0 °F 82% 30.28 in 9.0 mi North 3.5 mph - N/A   Overcast
2:53 AM 32.0 °F 26.4 °F 26.1 °F 79% 30.28 in 7.0 mi NNW 5.8 mph - 0.00 in Snow Light Snow
3:53 AM 30.9 °F 27.5 °F 26.1 °F 82% 30.29 in 9.0 mi NW 3.5 mph - 0.00 in   Overcast
4:53 AM 30.9 °F - 26.1 °F 82% 30.30 in 8.0 mi Calm Calm - N/A   Overcast
5:53 AM 30.0 °F 26.5 °F 26.1 °F 85% 30.33 in 8.0 mi West 3.5 mph - N/A   Overcast
6:53 AM 30.0 °F 26.5 °F 26.1 °F 85% 30.35 in 5.0 mi WSW 3.5 mph - 0.00 in Snow Light Snow
7:53 AM 30.0 °F 24.1 °F 25.0 °F 82% 30.35 in 8.0 mi WSW 5.8 mph - 0.00 in   Mostly Cloudy
8:53 AM 32.0 °F 27.5 °F 26.1 °F 79% 30.39 in 9.0 mi NNE 4.6 mph - N/A   Mostly Cloudy
9:53 AM 35.1 °F - 27.0 °F 72% 30.40 in 9.0 mi Calm Calm - N/A   Scattered Clouds
10:53 AM 35.1 °F 30.1 °F 27.0 °F 72% 30.41 in 9.0 mi WNW 5.8 mph - N/A   Partly Cloudy
11:53 AM 36.0 °F 29.0 °F 27.0 °F 70% 30.41 in 10.0 mi WNW 9.2 mph - N/A   Partly Cloudy
12:53 PM 37.9 °F 33.5 °F 25.0 °F 60% 30.40 in 10.0 mi West 5.8 mph - N/A   Partly Cloudy
1:53 PM 37.9 °F 33.5 °F 26.1 °F 62% 30.39 in 10.0 mi WNW 5.8 mph - N/A   Partly Cloudy
2:53 PM 39.0 °F 34.0 °F 26.1 °F 60% 30.37 in 10.0 mi North 6.9 mph - N/A   Partly Cloudy
3:53 PM 37.9 °F 32.7 °F 27.0 °F 65% 30.41 in 10.0 mi North 6.9 mph - N/A   Scattered Clouds
4:53 PM 37.0 °F 31.0 °F 25.0 °F 62% 30.41 in 10.0 mi North 8.1 mph - N/A   Scattered Clouds
5:53 PM 34.0 °F 28.0 °F 25.0 °F 70% 30.42 in 10.0 mi NNW 6.9 mph - N/A   Scattered Clouds
6:53 PM 30.9 °F 26.2 °F 24.1 °F 76% 30.44 in 10.0 mi NNW 4.6 mph - N/A   Partly Cloudy
7:53 PM 30.9 °F 27.5 °F 23.0 °F 72% 30.45 in 10.0 mi NW 3.5 mph - N/A   Partly Cloudy
8:53 PM 32.0 °F 27.5 °F 24.1 °F 73% 30.45 in 10.0 mi West 4.6 mph - N/A   Scattered Clouds
9:53 PM 28.0 °F 24.2 °F 21.9 °F 78% 30.46 in 10.0 mi SW 3.5 mph - N/A   Partly Cloudy
10:53 PM 30.0 °F 25.2 °F 23.0 °F 75% 30.46 in 10.0 mi SSE 4.6 mph - N/A   Partly Cloudy
11:53 PM 27.0 °F 20.5 °F 21.0 °F 78% 30.48 in 10.0 mi South 5.8 mph - N/A   Scattered Clouds